This is the latest recevied weather packets stored in our database for station/object OK1PMP-6. If no packets are shown the sender has not sent any weather packets the latest 10 day(s).
| Time | Temp. | Humidity | Pressure | Rain* | Wind** | Luminosity | Snow |
|---|---|---|---|---|---|---|---|
| 1777701602 | 7.78° C | 78% | 1029.1 hPa | 0 mm | - | 251 W/m² | - |
| 1777700696 | 6.67° C | 80% | 1029 hPa | 0 mm | - | 204 W/m² | - |
| 1777699791 | 5.56° C | 84% | 1028.9 hPa | 0 mm | - | 163 W/m² | - |
| 1777698892 | 4.44° C | 86% | 1029 hPa | 0 mm | - | 128 W/m² | - |
| 1777697989 | 2.78° C | 87% | 1028.9 hPa | 0 mm | - | 91 W/m² | - |
| 1777697088 | 2.22° C | 89% | 1028.8 hPa | 0 mm | - | 62 W/m² | - |
| 1777696173 | 1.67° C | 85% | 1028.7 hPa | 0 mm | - | 22 W/m² | - |
| 1777695319 | 1.11° C | 84% | 1028.9 hPa | 0 mm | - | 16 W/m² | - |
| 1777694370 | 1.11° C | 84% | 1028.8 hPa | 0 mm | - | 11 W/m² | - |
| 1777693477 | 1.11° C | 84% | 1028.6 hPa | 0 mm | - | 5 W/m² | - |
| 1777692567 | 1.67° C | 83% | 1028.6 hPa | 0 mm | - | 0 W/m² | - |
| 1777691666 | 1.67° C | 84% | 1028.7 hPa | 0 mm | - | 0 W/m² | - |
| 1777690766 | 1.67° C | 85% | 1028.8 hPa | 0 mm | - | 0 W/m² | - |
| 1777689865 | 1.67° C | 81% | 1028.6 hPa | 0 mm | - | 0 W/m² | - |
| 1777688960 | 1.67° C | 82% | 1028.7 hPa | 0 mm | - | 0 W/m² | - |
| 1777688058 | 2.22° C | 81% | 1028.7 hPa | 0 mm | - | 0 W/m² | - |
| 1777669988 | 7.78° C | 65% | 1029.1 hPa | 0 mm | - | 0 W/m² | - |
| 1777669090 | 7.78° C | 63% | 1029.1 hPa | 0 mm | - | 0 W/m² | - |
| 1777667282 | 9.44° C | 58% | 1029 hPa | 0 mm | - | 0 W/m² | - |
| 1777665463 | 11.11° C | 55% | 1028.9 hPa | 0 mm | - | 0 W/m² | - |
| 1777660933 | 13.89° C | 47% | 1028.7 hPa | 0 mm | - | 0 W/m² | - |
| 1777660030 | 15° C | 45% | 1028.6 hPa | 0 mm | - | 0 W/m² | - |
| 1777659131 | 16.67° C | 42% | 1028.3 hPa | 0 mm | - | 5 W/m² | - |
| 1777655516 | 20.56° C | 33% | 1028 hPa | 0 mm | - | 29 W/m² | - |
| 1777654613 | 21.67° C | 33% | 1028.2 hPa | 0 mm | - | 40 W/m² | - |
* Rain latest hour (hover to see other rain measurements)
** Current wind speed in m/s (hover to see current wind gust speed)